SCP
0 0 0 0 0 0 0 0 0 0 1 1 1 1 1 1 1 1 1 1 2 3 5 6 6 6 5 4 4 4 4 4 4 3 2 2 3 3 2 2 2 2 2 2 3 3 4 4 4
0 0 0 0 0 0 0 0 0 1 1 1 1 1 1 1 1 1 1 1 2 3 5 6 6 6 5 5 4 4 4 4 4 3 2 2 3 3 3 2 2 2 2 2 3 3 4 4 4
0 0 0 0 0 0 0 0 0 1 1 1 1 1 1 1 1 1 1 2 2 3 4 6 6 6 6 5 4 4 4 4 4 3 2 2 3 3 3 3 2 2 2 3 3 3 4 4 5
0 0 0 0 0 1 1 0 0 0 1 1 1 1 1 1 1 1 2 2 2 3 4 5 6 6 6 5 5 5 4 4 4 3 2 2 2 3 4 3 3 2 2 2 2 3 3 4 4
0 0 0 0 1 1 1 0 0 0 1 1 1 1 1 1 1 2 2 3 3 3 4 5 5 5 5 5 5 6 5 4 4 3 3 2 2 3 4 4 3 3 2 2 2 2 3 3 4
0 0 0 1 1 1 1 0 0 1 1 1 1 1 1 1 1 2 3 4 4 4 4 4 4 4 4 5 5 6 5 4 4 4 4 3 3 3 3 3 3 3 3 2 2 3 3 3 3
0 0 1 1 1 1 1 0 0 1 1 1 1 1 1 1 1 2 3 4 5 4 4 4 4 3 3 4 4 4 4 4 4 5 4 4 4 3 3 3 3 3 3 3 3 3 3 3 3
0 0 1 1 1 1 0 0 0 1 1 1 1 1 1 1 1 2 2 3 3 4 4 4 4 3 3 3 3 3 3 4 4 4 4 4 4 3 3 2 2 2 3 3 3 3 2 2 2
0 0 0 0 0 0 0 0 0 0 1 1 1 1 1 2 2 2 2 2 3 3 4 4 4 4 3 3 3 3 3 3 3 3 3 3 3 3 3 3 2 3 3 3 3 3 2 2 2
0 0 0 0 0 0 0 0 0 1 1 1 1 1 2 2 2 2 2 2 3 4 4 3 3 3 3 3 2 3 3 3 3 3 3 3 3 3 3 3 3 3 3 3 3 3 2 2 2
0 0 0 0 0 0 0 0 0 1 1 1 2 2 2 2 2 2 2 3 4 4 3 3 3 3 3 3 3 3 3 4 4 3 3 4 4 4 4 4 4 3 3 3 3 3 2 2 2
0 0 0 0 0 0 0 0 1 1 2 2 3 3 2 2 3 3 3 4 4 3 3 3 3 4 4 4 3 3 3 3 4 4 4 5 5 6 5 5 4 3 3 3 3 3 3 2 2
0 0 0 0 0 0 0 0 1 2 3 3 4 3 3 3 3 4 4 4 4 3 3 3 4 5 6 6 5 4 4 4 4 4 4 5 6 6 6 6 5 4 3 3 3 4 3 3 2
0 0 0 0 0 0 0 1 1 2 2 3 4 4 4 3 3 3 3 4 3 3 3 3 5 6 8 8 6 5 4 4 4 4 4 5 5 6 6 6 6 5 3 3 3 3 3 3 2
0 0 0 0 0 0 0 1 1 2 2 3 4 4 4 3 3 2 2 3 3 4 4 4 4 6 8 8 6 5 5 5 5 5 5 4 4 5 5 6 6 5 4 4 4 3 3 3 3
0 0 0 0 0 0 0 1 1 2 2 3 4 4 3 3 2 2 2 2 3 4 4 5 4 5 6 7 6 5 5 5 5 5 5 4 4 4 4 4 4 4 4 5 4 4 4 4 4
0 0 0 0 0 0 0 1 1 1 2 3 3 3 3 2 2 2 2 2 3 3 4 5 6 6 5 5 6 6 6 6 5 5 4 4 4 4 4 4 4 4 5 5 5 4 4 4 4
0 0 0 0 0 0 0 1 1 1 2 3 3 3 2 2 2 2 2 3 3 3 4 6 8 7 6 5 5 5 5 5 4 4 3 3 3 4 4 4 4 4 5 5 5 5 5 4 4
0 0 0 0 0 0 0 1 1 1 2 2 3 2 2 2 3 3 3 3 3 4 5 8 9 8 6 5 5 4 4 4 4 4 3 2 2 3 3 3 3 4 4 5 5 5 5 5 5
0 0 0 0 0 0 1 1 1 2 2 2 2 2 2 2 3 4 4 4 4 5 7 9 10 8 6 5 5 4 4 4 4 4 3 2 2 2 2 3 3 3 3 4 5 5 5 5 6
0 0 0 0 0 0 1 1 1 2 2 2 2 2 2 3 4 5 5 5 5 6 8 9 9 7 6 6 5 4 4 3 3 3 3 3 3 3 3 2 3 3 3 3 4 4 4 5 5
0 0 0 0 0 0 0 1 1 2 2 2 2 2 2 3 4 5 5 5 5 5 6 7 7 6 6 6 5 4 3 2 2 2 2 2 3 3 3 3 3 3 3 3 3 4 4 4 4
0 0 0 0 0 0 0 1 1 2 2 2 2 2 2 3 4 5 5 5 4 3 3 3 3 4 4 4 4 3 2 2 2 2 2 2 2 3 4 4 4 3 3 3 3 3 3 3 3
0 0 0 0 0 0 0 0 1 1 2 2 2 2 2 2 3 5 5 4 2 2 1 2 2 2 3 3 3 2 2 2 2 1 1 1 2 3 4 5 5 4 3 2 2 2 3 3 3
0 0 0 0 0 0 0 0 1 1 2 2 2 2 1 2 3 4 6 5 3 2 1 1 1 2 2 3 3 2 2 2 2 2 2 1 1 2 3 4 4 3 3 2 2 2 2 2 2
0 0 0 0 0 0 0 1 1 2 2 2 2 1 1 1 2 4 6 5 3 1 1 1 1 1 1 2 2 2 2 2 2 2 2 2 1 2 2 2 2 2 2 1 1 2 2 2 2
0 0 0 0 0 0 0 1 2 2 2 1 1 1 1 1 2 3 5 5 2 1 1 1 1 1 1 1 2 2 2 2 2 3 2 2 1 1 1 1 1 1 1 1 1 1 2 2 2
0 0 0 0 0 0 0 1 3 3 2 1 1 1 1 1 1 3 5 4 2 1 1 1 1 1 1 1 2 2 2 2 3 3 2 2 1 1 1 1 1 1 1 1 1 1 1 1 1
0 0 0 0 0 0 0 1 2 2 2 1 1 1 1 1 1 3 4 3 1 1 1 1 1 1 1 1 2 2 2 2 3 3 2 1 1 1 1 1 1 1 1 1 1 1 1 1 1
0 0 0 0 0 0 0 1 2 3 2 1 0 0 1 1 2 2 3 2 1 1 1 1 1 1 1 2 2 3 3 3 3 2 2 1 1 1 1 1 1 1 1 1 1 1 1 1 1
Wind_Speed
9 8 6 6 7 3 5 6 5 5 5 6 5 4 5 6 7 6 6 5 6 10 14 16 13 12 11 11 11 12 12 12 12 12 13 13 13 12 11 11 10 10 9 9 8 7 7 6 6
5 5 7 7 5 3 6 6 6 7 6 3 3 3 4 6 7 5 4 4 7 10 13 14 14 12 11 11 10 11 12 12 12 12 12 12 12 11 11 10 10 9 9 9 8 7 7 6 6
6 7 7 5 1 4 6 6 6 6 4 3 3 4 5 6 5 4 4 5 7 10 12 13 14 12 11 11 10 10 12 12 11 11 11 11 11 11 10 10 10 9 8 8 8 8 7 6 6
5 7 6 4 4 6 5 5 4 4 4 4 3 4 6 6 5 4 5 6 8 9 10 13 12 12 11 10 10 10 10 11 11 11 10 10 10 10 10 10 9 9 9 8 8 8 7 7 7
6 6 5 3 4 4 3 4 3 3 4 5 4 4 6 6 6 6 6 6 7 8 8 13 11 10 10 10 9 9 9 9 10 10 10 10 9 9 9 10 9 9 9 9 9 8 8 7 7
6 5 4 2 4 3 3 2 2 4 4 5 4 3 6 6 5 5 6 6 6 7 8 11 11 10 9 9 8 7 7 7 8 9 9 8 8 8 8 8 8 9 8 8 8 8 8 8 8
6 3 1 1 2 3 4 2 3 4 4 5 4 2 5 6 5 4 5 6 6 6 6 7 9 10 10 8 7 6 6 6 6 7 7 8 7 7 8 8 8 8 8 9 9 8 8 9 9
5 4 2 1 1 3 3 1 2 3 4 5 3 3 3 4 3 4 5 6 6 5 5 5 5 6 8 9 9 7 6 6 6 7 7 8 8 9 9 9 8 8 8 9 9 8 8 9 9
6 5 1 3 2 3 2 0 2 1 2 4 5 6 6 4 3 4 5 5 5 4 4 3 4 4 4 5 7 8 8 7 6 7 7 8 8 8 8 8 6 7 7 8 8 8 8 9 10
5 2 4 3 4 3 3 2 1 1 2 3 4 6 6 4 3 2 3 3 4 4 3 3 3 3 3 2 4 5 5 5 5 4 6 6 5 5 5 4 6 7 8 9 9 9 10 11 7
3 1 2 1 2 2 2 2 2 1 2 4 3 4 5 4 3 2 2 1 2 2 2 2 3 2 2 2 2 2 3 3 5 4 5 4 4 4 4 3 5 7 8 7 7 9 7 7 6
2 1 1 2 2 2 2 2 3 4 5 5 4 6 5 5 4 4 4 2 1 1 2 1 2 2 2 2 2 2 3 2 3 3 5 4 3 3 3 3 3 3 3 4 5 4 6 7 7
3 0 1 0 0 2 2 2 3 5 5 5 6 6 6 5 5 5 5 4 3 2 0 1 2 2 2 2 2 2 2 2 2 3 3 4 3 3 3 3 3 4 3 4 5 5 5 6 7
0 1 1 1 3 3 2 2 1 4 4 5 6 6 6 6 6 5 5 5 4 2 1 1 2 2 2 2 2 1 2 2 2 2 3 4 3 3 3 3 3 4 4 4 4 5 5 5 6
3 4 4 3 1 1 2 2 3 3 3 4 5 6 6 6 5 5 4 4 4 4 2 1 2 2 1 2 2 1 1 2 2 2 3 4 4 3 3 3 4 3 4 4 4 5 5 5 6
7 7 4 4 1 0 5 1 5 3 2 3 4 4 4 5 5 5 4 4 5 4 3 2 1 0 0 1 1 1 1 2 2 2 2 3 4 4 4 4 4 4 4 4 4 5 4 5 6
6 4 2 3 2 0 3 2 4 3 2 2 3 3 4 4 5 5 5 5 5 4 3 3 3 2 1 0 0 1 1 2 2 2 2 3 4 4 4 4 4 4 4 4 4 3 4 5 5
2 3 2 1 3 1 1 2 4 3 2 2 3 3 4 4 5 5 5 5 5 4 4 4 4 4 3 1 1 1 2 2 2 2 1 2 2 3 4 4 4 5 3 4 4 4 4 5 5
5 5 3 2 2 2 2 2 3 4 2 3 2 3 3 4 5 5 5 5 5 5 5 5 5 4 3 2 1 1 2 2 2 1 2 2 3 3 4 4 3 4 4 4 4 4 5 4 4
5 6 3 0 1 3 2 1 3 3 3 3 3 3 3 3 4 5 5 5 5 5 4 4 4 4 4 3 2 1 2 2 2 2 2 3 3 3 4 4 4 4 4 4 4 4 4 3 2
5 6 5 4 3 5 5 4 4 4 3 3 3 3 4 4 5 5 5 5 5 5 4 4 4 4 4 3 2 1 1 2 1 2 2 3 3 3 4 4 5 4 5 3 4 5 5 4 4
6 4 6 6 7 4 6 6 3 2 2 2 3 4 4 5 4 4 5 5 5 4 4 3 3 3 3 3 3 3 3 3 3 3 2 3 3 3 4 5 5 5 4 4 4 3 4 5 4
6 5 6 8 8 7 4 7 1 2 1 3 3 4 5 5 5 5 5 5 4 4 4 3 3 3 3 3 3 3 3 3 3 3 3 4 3 3 4 4 4 4 4 4 4 3 4 4 4
4 5 6 8 8 6 3 6 3 3 4 5 4 4 5 4 5 5 5 5 4 4 3 3 3 3 3 4 4 4 4 5 4 4 4 3 2 3 3 4 3 4 3 3 3 3 4 3 4
5 7 6 6 5 3 2 4 3 5 5 5 5 5 4 4 4 5 5 5 5 5 4 4 3 4 4 4 4 4 5 5 5 5 4 4 3 2 2 3 3 3 3 3 3 3 4 4 4
4 7 7 8 7 6 3 3 4 4 3 4 5 5 5 5 5 5 5 5 5 5 4 4 4 4 5 5 5 5 5 5 3 4 5 4 3 3 3 3 3 3 4 4 3 3 4 3 4
5 4 6 9 9 8 3 1 3 2 3 5 6 6 6 6 5 5 5 6 5 5 5 5 5 5 5 6 6 5 5 5 4 4 4 3 3 3 4 4 4 4 4 4 4 3 3 3 3
4 5 5 6 7 7 5 3 3 3 5 6 7 7 7 6 5 6 5 5 5 5 5 5 5 5 6 6 6 5 5 4 4 4 4 4 4 4 4 4 5 5 5 4 4 4 2 3 3
3 2 5 5 6 7 7 4 6 5 6 7 8 8 7 6 6 5 5 5 5 5 5 5 6 6 6 6 6 6 5 4 4 3 4 4 4 3 4 5 5 5 4 4 3 3 3 3 3
4 5 5 6 6 6 7 3 6 5 6 7 8 8 7 7 6 6 5 5 5 6 6 6 6 6 6 6 6 5 5 5 4 4 4 4 3 4 4 4 4 4 4 3 4 3 3 4 4
Wind_Direction
196 203 219 233 234 191 76 68 48 49 52 38 19 11 22 22 9 39 62 116 133 146 146 154 156 156 157 158 159 157 155 155 158 160 161 163 165 166 168 169 170 173 176 178 178 182 183 186 188
206 208 227 239 250 123 84 55 48 40 46 37 37 33 47 48 37 52 77 113 144 147 151 157 151 157 157 158 158 159 159 159 160 160 164 166 168 169 172 174 175 177 182 184 185 189 191 193 196
212 232 254 246 335 53 75 56 45 55 61 26 33 44 35 36 38 43 67 137 145 147 151 143 153 157 158 159 159 159 162 162 163 164 166 169 172 174 177 181 182 184 187 191 193 196 199 200 203
228 225 235 245 91 65 51 55 30 57 74 39 21 73 72 44 23 50 101 135 139 144 149 141 156 159 161 163 164 166 165 166 167 168 170 173 177 180 183 187 190 194 197 200 202 203 206 207 208
242 252 227 173 92 82 64 38 19 19 33 32 22 69 75 56 52 82 114 131 135 138 142 141 153 159 162 165 168 168 167 169 172 172 175 179 183 187 191 194 197 201 207 211 211 209 210 212 215
241 243 240 108 92 94 85 57 15 25 40 40 25 61 76 67 73 92 116 127 124 132 138 137 153 160 163 167 170 168 169 172 176 178 179 182 187 193 196 200 203 205 210 217 218 216 215 217 220
276 270 324 43 87 110 66 45 11 13 32 36 15 38 92 67 68 95 116 120 119 124 130 142 160 165 169 169 172 171 171 175 179 183 183 185 191 196 203 208 213 215 216 217 218 220 222 223 224
285 263 190 116 360 74 79 57 22 358 44 47 26 20 65 60 83 111 120 120 119 123 125 139 160 166 177 175 169 173 176 180 185 192 196 197 200 203 208 214 212 220 224 223 221 220 225 229 231
258 248 80 33 2 41 58 358 61 46 92 73 45 34 52 87 117 129 130 129 123 124 132 147 161 165 189 183 161 180 184 182 193 198 198 214 218 213 208 216 197 219 226 226 222 222 226 232 228
250 279 54 17 355 9 16 349 41 195 100 65 54 55 77 105 124 135 131 134 139 140 151 159 172 168 190 187 174 198 202 186 210 212 210 222 229 235 239 181 201 221 229 227 222 226 226 233 232
255 330 45 7 2 350 16 34 44 295 24 20 43 83 94 100 98 90 76 98 136 153 166 176 184 185 196 189 201 206 211 199 212 218 228 235 237 233 239 223 208 221 227 229 215 221 229 232 236
238 347 330 332 338 328 4 29 55 33 24 32 71 104 104 96 75 55 46 30 39 149 181 195 193 191 210 212 215 222 222 210 217 215 232 236 240 242 242 240 244 236 234 242 241 239 235 240 240
209 111 57 44 47 62 69 48 48 47 46 63 89 101 99 87 70 56 44 35 26 14 216 197 215 196 206 215 240 235 249 236 222 233 231 241 243 245 240 243 248 250 242 236 246 250 245 245 243
38 284 230 149 128 126 98 81 60 53 62 76 85 85 81 72 66 59 43 28 15 1 324 220 215 208 201 212 233 262 269 269 261 234 234 242 252 249 249 243 239 246 248 252 252 257 253 250 251
198 214 185 152 194 170 224 96 50 56 79 84 81 78 74 68 61 52 38 22 15 2 346 271 222 219 224 240 246 255 268 269 272 260 241 237 243 243 244 251 246 248 250 249 250 254 252 249 246
212 222 208 110 146 187 256 8 64 55 90 86 78 78 71 60 46 41 30 20 19 16 12 352 319 260 228 281 308 307 287 273 277 275 256 241 242 239 237 243 248 249 250 247 249 253 255 253 252
211 247 285 102 91 266 265 359 64 57 82 85 76 72 59 54 37 31 23 21 17 16 18 18 5 0 348 15 327 314 305 281 274 273 278 262 240 240 245 248 256 250 251 255 258 252 262 261 258
308 294 290 337 76 295 294 28 63 67 62 74 66 54 49 42 35 30 27 27 25 22 21 22 21 16 358 1 10 313 294 279 277 270 289 297 260 247 255 251 255 257 251 254 260 261 256 266 267
306 289 293 16 80 304 325 23 59 75 76 71 66 51 41 37 36 33 31 29 25 23 25 26 20 15 357 341 323 311 301 304 299 298 314 288 281 265 256 264 253 255 252 258 260 258 253 256 266
276 279 291 2 64 293 287 6 90 80 72 57 41 31 20 24 32 29 25 24 23 21 20 22 19 11 356 355 335 318 308 303 303 305 290 278 279 275 260 264 263 257 259 253 259 258 264 259 248
282 295 301 295 264 237 247 219 139 114 80 55 35 16 15 11 10 14 14 13 12 15 14 15 12 1 353 342 316 306 254 257 275 292 278 279 279 269 274 265 266 268 262 262 261 255 252 258 244
296 327 292 267 259 264 255 280 117 126 98 39 19 5 3 2 0 2 5 2 5 8 11 15 6 2 354 332 330 313 305 304 306 300 305 296 280 272 261 264 261 263 267 267 263 261 259 258 257
324 318 278 266 265 273 251 275 86 115 340 347 357 354 357 356 356 358 358 358 359 3 2 3 5 4 355 338 325 301 293 292 290 292 290 287 283 276 272 265 265 259 261 263 268 267 259 257 263
308 274 248 240 249 266 310 292 330 43 350 346 354 352 351 351 357 359 2 3 0 359 355 355 359 354 338 326 323 309 299 293 295 294 290 281 283 280 278 270 269 262 263 256 260 266 254 266 269
301 295 270 254 257 295 27 285 13 39 17 357 352 351 345 348 355 359 1 0 357 353 350 348 345 335 329 324 317 306 295 283 277 282 283 283 279 275 279 281 273 273 264 258 263 258 264 259 261
320 307 310 305 306 309 281 287 55 57 33 9 360 359 356 355 352 351 353 354 353 349 346 339 331 325 323 320 315 304 291 283 285 286 290 282 281 287 288 278 274 267 255 255 253 262 260 257 263
313 324 327 291 286 278 274 182 125 92 40 15 8 3 358 351 345 343 345 346 346 343 344 336 328 320 313 311 310 303 297 293 290 280 275 281 277 271 266 269 262 256 250 252 251 263 269 266 265
344 330 292 292 302 295 284 299 5 14 6 6 2 359 355 346 340 339 337 341 341 338 339 332 323 316 309 308 310 310 299 289 285 281 288 286 276 272 271 273 269 264 255 249 255 263 266 271 274
334 324 313 299 303 300 301 352 35 12 357 344 345 350 346 340 335 329 332 340 339 337 336 335 329 321 314 310 310 309 297 289 285 286 287 282 278 272 266 264 265 264 260 257 254 263 266 269 273
337 337 320 307 307 293 296 337 60 19 349 336 337 345 342 335 330 327 334 336 337 339 339 337 332 330 321 311 304 303 301 296 293 289 289 284 280 274 272 268 265 264 260 258 256 254 260 267 269